Weather Roundup
Issued by NWS

Home | Current Version | Previous Version | Graphics & Text | Print | Product List | Glossary Off
Versions: 1 2 3 4 5 6 7 8 9 10 11 12 13 14 15 16 17 18 19 20 21 22 23 24 25 26 27 28 29 30 31 32 33 34 35 36 37 38 39 40 41 42 43 44 45 46 47 48 49 50

944
NZUS93 KARX 290210
HRRWXR

CURRENT HOURLY OBSERVATIONS ACROSS
MUCH OF THE UPPER MISSISSIPPI VALLEY
NATIONAL WEATHER SERVICE LA CROSSE WI
900 PM CDT TUE MAR 28 2017


...SOUTHEAST MINNESOTA...


CITY           SKY/WX    TMP DP  RH WIND       PRES   REMARKS
ROCHESTER      CLOUDY    50  37  61 E6        30.18R
ROCHESTER/MAYO FAIR      54  36  51 E3        30.18R
WINONA         CLEAR     46  37  71 CALM      30.19R
AUSTIN         PTCLDY    48  37  66 CALM      30.18R
ALBERT LEA     PTCLDY    48  34  57 E5        30.17R
DODGE CENTER   CLOUDY    46  37  71 E5        30.18R
PRESTON        CLEAR     51  33  51 CALM      30.18R
OWATONNA       PTCLDY    50  37  62 CALM      30.18R
FARIBAULT      PTCLDY    46  39  76 CALM      30.18R
$$

...ELSEWHERE IN MINNESOTA...


CITY           SKY/WX    TMP DP  RH WIND       PRES   REMARKS
MINNEAPOLIS    MOCLDY    57  30  35 VRB5      30.17R
INTNL FALLS    CLEAR     37  25  61 E5        30.23R WCI  33
DULUTH         PTCLDY    39  29  67 E7        30.21R WCI  34
RED WING       PTCLDY    46  28  49 CALM      30.17R
REDWOOD FALLS  CLOUDY    55  31  39 NE3       30.16R
MANKATO        CLOUDY    52  36  54 SE6       30.17R
WORTHINGTON    CLOUDY    48  39  71 E3        30.16R
FAIRMONT       CLOUDY    49  40  71 E7        30.16R
$$

...SOUTHWEST WISCONSIN...


CITY           SKY/WX    TMP DP  RH WIND       PRES   REMARKS
LA CROSSE      CLEAR     49  39  68 CALM      30.17R
PRAIRIE DU CHI CLEAR     45  39  80 CALM      30.18R
BOSCOBEL       CLEAR     44  39  82 CALM      30.18R
LONE ROCK      CLEAR     47  37  68 E5        30.19R
PLATTEVILLE    CLEAR     45  42  88 CALM      30.18R
FORT MC COY    CLEAR     42  34  75 CALM      30.20R
CAMP DOUGLAS   CLEAR     43  32  65 E5        30.19R
MAUSTON-NEW LI CLEAR     44  36  73 CALM      30.19R
VIROQUA        FAIR      49  35  57 CALM      30.18R
WIS DELLS      CLEAR     46  32  57 E7        30.20R
$$

...ELSEWHERE IN WISCONSIN...


CITY           SKY/WX    TMP DP  RH WIND       PRES   REMARKS
MILWAUKEE      DRZL/FOG  36  34  92 N8        30.23R VSB 1/4 WCI  30
MADISON        CLEAR     46  37  71 NE7       30.19R
GREEN BAY      CLEAR     41  38  89 S3        30.22R
EAU CLAIRE     CLEAR     48  29  47 CALM      30.18R
BLACK RVR FLS  FAIR      40  31  68 NE3       30.18R
MEDFORD        CLEAR     41  33  73 CALM      30.19R
WAUSAU         CLEAR     49  28  44 SE3       30.19R
WIS RAPIDS     CLEAR     47  31  53 SE7       30.21R
MARSHFIELD     CLEAR     45  35  68 CALM      30.19R
RICE LAKE      CLEAR     44  30  58 CALM      30.20R
$$

...NORTHEAST IOWA...


CITY           SKY/WX    TMP DP  RH WIND       PRES   REMARKS
WATERLOO       CLOUDY    46  39  76 E10       30.17R
DUBUQUE        CLEAR     41  38  89 CALM      30.17R
DECORAH        CLEAR     46  39  76 S5        30.17R
MASON CITY     MOCLDY    48  38  68 E8        30.17R
CHARLES CITY   PTCLDY    50  39  66 SE7       30.18R
OELWEIN        CLOUDY    45  41  87 SE7       30.18R
$$

...ELSEWHERE IN IOWA...


CITY           SKY/WX    TMP DP  RH WIND       PRES   REMARKS
DES MOINES     CLOUDY    51  43  74 E6        30.13F
IOWA CITY      PTCLDY    49  40  71 E6        30.19R
FORT DODGE     CLOUDY    48  39  71 S6        30.15R
MARSHALLTOWN   CLOUDY    46  42  86 CALM      30.15R
CEDAR RAPIDS   CLEAR     44  40  85 E7        30.17R
$$

...NORTHERN ILLINOIS...


CITY           SKY/WX    TMP DP  RH WIND       PRES   REMARKS
CHICAGO-OHARE  CLOUDY    41  36  82 NE8       30.19R
CHICAGO-MIDWAY CLOUDY    43  38  82 N8        30.19R
MOLINE         CLOUDY    46  39  76 E6        30.17R
ROCKFORD       CLEAR     45  36  70 NE6       30.21R
PEORIA         CLOUDY    47  41  80 NE13      30.16R
$$

NOTE: "FAIR" INDICATES FEW OR NO CLOUDS BELOW 12,000 FEET WITH NO
SIGNIFICANT WEATHER AND/OR OBSTRUCTIONS TO VISIBILITY. WIND
SPEEDS ARE IN MILES-PER-HOUR.




USA.gov is the U.S. government's official web portal to all federal, state and local government web resources and services.